This demonstration page uses our WeatherBlox Daily Observations layout. Learn more.

Left ArrowRight Arrow

Hourly Observations for January 12, 2022

Temp ( °F °C ) Dew Point ( °F °C ) Humidity (%) Winds ( mph kmh ) Pressure ( in mb ) Visibility ( mi km ) Precip ( " mm )
12:53 am 00:53 Clear 30 -1.1 25 -3.9 82 82 Calm 30.44 1031 10 16 0.00 0.00
1:53 am 01:53 Clear 29 -1.7 27 -2.8 92 92 Calm 30.44 1031 10 16 0.00 0.00
2:53 am 02:53 Clear 30 -1.1 26 -3.3 85 85 Calm 30.42 1030 10 16 0.00 0.00
3:53 am 03:53 Clear 28 -2.2 25 -3.9 88 88 NNE 3 6 30.41 1030 10 16 0.00 0.00
4:53 am 04:53 Clear 28 -2.2 25 -3.9 88 88 Calm 30.39 1029 10 16 0.00 0.00
5:53 am 05:53 Clear 28 -2.2 25 -3.9 88 88 Calm 30.40 1030 10 16 0.00 0.00
6:53 am 06:53 Clear 28 -2.2 24 -4.4 85 85 Calm 30.41 1030 10 16 0.00 0.00
7:53 am 07:53 Sunny 27 -2.8 25 -3.9 92 92 Calm 30.42 1030 10 16 0.00 0.00
8:53 am 08:53 Sunny 31 -0.6 30 -1.1 96 96 Calm 30.42 1030 10 16 0.00 0.00
9:53 am 09:53 Sunny 38 3.3 28 -2.2 68 68 Calm 30.40 1030 10 16 0.00 0.00
10:53 am 10:53 Sunny 44 6.7 25 -3.9 47 47 SSW 5 7 30.39 1029 10 16 0.00 0.00
11:53 am 11:53 Sunny 48 8.9 23 -5 37 37 Calm 30.35 1028 10 16 0.00 0.00
12:53 pm 12:53 Sunny 50 10 23 -5 35 35 Calm 30.31 1026 10 16 0.00 0.00
1:53 pm 13:53 Sunny 51 10.6 23 -5 33 33 SW 5 7 30.27 1025 10 16 0.00 0.00
2:53 pm 14:53 Sunny 53 11.7 23 -5 31 31 undefined N/A 30.23 1024 10 16 0.00 0.00
3:53 pm 15:53 Sunny 54 12.2 23 -5 30 30 VRB 3 6 30.22 1024 10 16 0.00 0.00
4:53 pm 16:53 Sunny 53 11.7 24 -4.4 32 32 Calm 30.22 1023 10 16 0.00 0.00
5:53 pm 17:53 Clear 51 10.6 25 -3.9 36 36 Calm 30.21 1023 10 16 0.00 0.00
6:53 pm 18:53 Clear 46 7.8 28 -2.2 50 50 Calm 30.21 1023 10 16 0.00 0.00
7:53 pm 19:53 Clear 41 5 30 -1.1 65 65 Calm 30.21 1023 10 16 0.00 0.00
8:53 pm 20:53 Clear 37 2.8 30 -1.1 76 76 Calm 30.19 1022 10 16 0.00 0.00
9:53 pm 21:53 Clear 35 1.7 29 -1.7 78 78 Calm 30.19 1022 10 16 0.00 0.00
10:53 pm 22:53 Clear 33 0.6 28 -2.2 82 82 Calm 30.17 1022 10 16 0.00 0.00
11:53 pm 23:53 Clear 32 0 28 -2.2 85 85 Calm 30.18 1022 10 16 0.00 0.00

Powered by AerisWeather